DW8219 Weather Reports


Display with metric or nautical units.
time (UTC)temp
F
wind
direction
speed
MPH
gust
MPH
rain 1hr
in
rain 24hr
in
rain mn
in
humidity
%
barometer
mb
20180225151402 40 45 5.0 10.0 0.05 0.82 0.74 94 1015.3
20180225150902 40 53 6.0 15.0 0.04 0.81 0.73 94 1015.3
20180225150403 40 67 7.0 14.0 0.04 0.81 0.73 94 1015.4
20180225145902 40 77 6.0 9.0 0.04 0.80 0.72 94 1015.7
20180225145404 40 51 6.0 12.0 0.03 0.79 0.71 94 1015.6
20180225144903 40 65 6.0 13.0 0.02 0.78 0.70 94 1015.4
20180225144403 40 61 5.0 12.0 0.02 0.78 0.70 95 1015.6
20180225143903 40 88 6.0 12.0 0.02 0.78 0.70 94 1015.6
20180225143403 40 51 7.0 13.0 0.03 0.78 0.70 94 1015.6
20180225142903 40 67 7.0 13.0 0.03 0.78 0.70 95 1015.6
20180225142403 40 67 6.0 10.0 0.03 0.78 0.70 94 1015.9
20180225141903 40 67 6.0 12.0 0.04 0.78 0.70 94 1016.1
20180225141402 40 69 5.0 13.0 0.03 0.77 0.69 94 1016.3
20180225140904 40 73 6.0 13.0 0.03 0.77 0.69 94 1016.5
20180225140403 40 76 6.0 13.0 0.03 0.77 0.69 94 1016.5
20180225135903 40 62 7.0 13.0 0.03 0.76 0.68 94 1016.7
20180225135403 40 82 6.0 14.0 0.04 0.76 0.68 94 1016.7
20180225134903 40 75 5.0 9.0 0.05 0.76 0.68 94 1016.9
20180225134403 40 65 5.0 10.0 0.06 0.76 0.68 94 1016.9
20180225133903 40 79 5.0 13.0 0.08 0.76 0.68 94 1016.9
20180225133403 40 58 5.0 12.0 0.09 0.75 0.67 94 1017.1
20180225132903 40 69 3.0 10.0 0.09 0.75 0.67 94 1017.3
20180225132404 40 78 6.0 15.0 0.09 0.75 0.67 94 1017.6
20180225131903 40 67 8.0 16.0 0.09 0.74 0.66 94 1017.7
20180225131403 40 81 6.0 14.0 0.10 0.74 0.66 94 1017.9
20180225130903 40 68 4.0 12.0 0.10 0.74 0.66 94 1018.3
20180225130403 40 62 4.0 9.0 0.12 0.74 0.66 94 1018.3
20180225125903 40 79 4.0 10.0 0.11 0.73 0.65 94 1018.1
20180225125403 40 57 7.0 12.0 0.11 0.72 0.64 94 1018.3
20180225124904 40 76 5.0 9.0 0.11 0.71 0.63 94 1018.5
20180225124403 40 67 3.0 7.0 0.10 0.70 0.62 94 1018.6
20180225123903 40 76 5.0 10.0 0.09 0.68 0.60 94 1018.4
20180225123403 40 72 7.0 10.0 0.09 0.66 0.58 94 1018.5
20180225122903 40 84 5.0 13.0 0.11 0.66 0.58 94 1018.2
20180225122403 39 78 5.0 12.0 0.12 0.66 0.58 94 1018.2
20180225121903 39 64 6.0 13.0 0.13 0.65 0.57 94 1018.2
20180225121403 39 67 4.0 12.0 0.14 0.64 0.56 94 1018.0
20180225120904 39 82 7.0 15.0 0.14 0.64 0.56 94 1017.9
20180225120403 39 58 5.0 13.0 0.13 0.62 0.54 94 1018.0
20180225115904 39 65 7.0 14.0 0.13 0.62 0.54 93 1017.7
20180225115403 39 71 10.0 17.0 0.13 0.61 0.53 93 1017.8
20180225114903 39 71 9.0 17.0 0.12 0.60 0.52 93 1018.5
20180225114404 40 59 7.0 12.0 0.14 0.60 0.52 93 1018.5
20180225113903 40 56 9.0 17.0 0.13 0.59 0.51 93 1018.7
20180225113403 40 44 6.0 12.0 0.14 0.57 0.49 93 1018.7
20180225112903 40 73 5.0 14.0 0.14 0.55 0.47 93 1018.7
20180225112403 40 75 5.0 10.0 0.15 0.54 0.46 93 1018.9
20180225111904 40 44 4.0 12.0 0.15 0.52 0.44 93 1018.6
20180225111403 40 83 7.0 12.0 0.14 0.50 0.42 93 1018.6
20180225110905 40 77 5.0 12.0 0.16 0.50 0.42 93 1018.7
20180225110404 40 78 7.0 13.0 0.16 0.49 0.41 93 1018.6
20180225105903 40 51 6.0 10.0 0.18 0.49 0.41 93 1018.9
20180225105404 40 63 6.0 14.0 0.18 0.48 0.40 93 1018.5
20180225104904 40 91 6.0 20.0 0.19 0.48 0.40 93 1018.1
20180225104404 41 82 12.0 20.0 0.18 0.46 0.38 93 1018.0
20180225103904 41 79 6.0 15.0 0.20 0.46 0.38 93 1018.0
20180225103404 41 59 8.0 16.0 0.18 0.43 0.35 93 1018.5
20180225102904 41 47 6.0 12.0 0.17 0.41 0.33 93 1018.4
20180225102404 41 87 6.0 12.0 0.16 0.39 0.31 93 1018.1
20180225101903 41 57 5.0 12.0 0.15 0.37 0.29 93 1018.1
20180225101404 41 73 7.0 13.0 0.17 0.36 0.28 93 1018.3
20180225100904 41 65 5.0 12.0 0.16 0.34 0.26 93 1018.1
20180225100404 41 57 5.0 12.0 0.17 0.33 0.25 92 1018.8
20180225095904 41 58 7.0 12.0 0.17 0.31 0.23 92 1018.6
20180225095404 41 40 7.0 13.0 0.18 0.30 0.22 92 1018.8
20180225094903 41 82 7.0 12.0 0.18 0.29 0.21 92 1019.1
20180225094404 41 32 5.0 10.0 0.18 0.28 0.20 92 1019.5
20180225093904 41 83 7.0 12.0 0.17 0.26 0.18 91 1019.7
20180225093404 41 75 5.0 9.0 0.16 0.25 0.17 91 1019.7
20180225092904 41 64 5.0 13.0 0.16 0.24 0.16 91 1019.2
20180225092404 41 58 6.0 14.0 0.15 0.23 0.15 91 1018.7
20180225091904 41 75 9.0 15.0 0.14 0.22 0.14 90 1019.3
20180225091404 41 81 7.0 13.0 0.11 0.19 0.11 90 1019.3
20180225090904 41 78 6.0 12.0 0.10 0.18 0.10 89 1019.5
20180225090404 41 76 7.0 14.0 0.08 0.16 0.08 89 1019.6
20180225085904 41 76 7.0 10.0 0.06 0.14 0.06 88 1019.7
20180225085405 41 64 4.0 9.0 0.04 0.12 0.04 87 1019.8
20180225084904 42 87 6.0 12.0 0.03 0.11 0.03 87 1019.7
20180225084404 42 86 6.0 12.0 0.02 0.10 0.02 86 1019.5
20180225083904 42 74 6.0 12.0 0.01 0.09 0.01 86 1019.3
20180225083404 42 82 7.0 12.0 0.01 0.09 0.01 85 1019.3
20180225082904 42 63 6.0 13.0 0.00 0.08 0.00 84 1019.3
20180225082414 42 54 6.0 12.0 0.00 0.08 0.00 84 1019.1
20180225081904 42 71 4.0 12.0 0.00 0.08 0.00 85 1019.2
20180225081404 42 72 6.0 12.0 0.00 0.08 0.00 85 1019.1
20180225080904 42 44 3.0 9.0 0.00 0.08 0.00 85 1018.9
20180225080404 42 78 7.0 10.0 0.00 0.08 0.00 85 1018.9
20180225075904 42 76 6.0 12.0 0.00 0.08 0.00 85 1019.1
20180225075405 42 68 7.0 16.0 0.00 0.08 0.00 85 1019.3
20180225074904 42 83 7.0 15.0 0.00 0.08 0.00 85 1019.5
20180225074404 42 58 5.0 8.0 0.00 0.08 0.00 86 1019.9
20180225073905 42 77 5.0 12.0 0.00 0.08 0.00 86 1019.8
20180225073404 42 65 6.0 13.0 0.00 0.08 0.00 86 1019.9
20180225072904 42 77 5.0 10.0 0.00 0.08 0.00 86 1020.0
20180225072405 42 63 3.0 12.0 0.00 0.08 0.00 86 1020.0
20180225071904 42 103 4.0 9.0 0.00 0.08 0.00 86 1020.4
20180225071405 42 97 6.0 12.0 0.00 0.08 0.00 87 1020.3
20180225070905 42 87 7.0 12.0 0.00 0.08 0.00 87 1020.1
20180225070404 42 83 5.0 10.0 0.00 0.08 0.00 87 1020.3
20180225065904 42 80 5.0 9.0 0.00 0.08 0.00 87 1020.3
20180225065405 42 84 4.0 9.0 0.00 0.08 0.00 88 1020.3
20180225064904 42 52 4.0 9.0 0.00 0.08 0.00 88 1020.3
20180225064404 42 79 4.0 12.0 0.00 0.08 0.00 89 1020.2
20180225063905 42 72 6.0 12.0 0.00 0.08 0.00 90 1020.5
20180225063404 42 59 2.0 5.0 0.00 0.08 0.00 90 1020.6
20180225062904 42 56 5.0 10.0 0.00 0.08 0.00 91 1020.8
20180225062405 42 38 2.0 6.0 0.00 0.08 0.00 91 1021.0
20180225061905 42 50 2.0 7.0 0.00 0.08 0.00 91 1020.8
20180225061405 42 43 3.0 6.0 0.00 0.08 0.00 91 1020.9
20180225060905 42 50 2.0 3.0 0.00 0.08 0.00 91 1020.9
20180225060405 42 54 3.0 5.0 0.00 0.08 0.00 91 1021.0
20180225055831 42 54 0.0 3.0 0.00 0.08 0.00 92 1021.3
20180225055331 42 55 0.0 3.0 0.00 0.08 0.00 92 1021.3
20180225054831 42 55 0.0 2.0 0.00 0.08 0.00 92 1021.2
20180225054331 42 55 1.0 2.0 0.00 0.08 0.00 92 1021.1
20180225053831 42 55 1.0 3.0 0.00 0.08 0.00 92 1021.0
20180225053331 42 55 2.0 5.0 0.00 0.08 0.00 92 1021.0
20180225052831 42 46 1.0 2.0 0.00 0.08 0.00 92 1021.1
20180225052331 42 46 2.0 3.0 0.00 0.08 0.00 92 1021.1
20180225051831 42 46 1.0 3.0 0.00 0.08 0.00 92 1021.2
20180225051332 42 46 1.0 3.0 0.00 0.08 0.00 92 1021.3
20180225050832 42 46 2.0 5.0 0.00 0.08 0.00 92 1021.2
20180225050331 42 43 2.0 3.0 0.00 0.08 0.00 92 1021.2
20180225045831 42 42 2.0 5.0 0.00 0.08 0.08 92 1021.2
20180225045331 42 48 2.0 3.0 0.00 0.08 0.08 92 1021.2
20180225044831 42 49 2.0 7.0 0.01 0.08 0.08 91 1021.3
20180225044331 41 57 3.0 6.0 0.01 0.08 0.08 91 1021.3
20180225043832 41 36 2.0 6.0 0.01 0.08 0.08 91 1021.4
20180225043331 41 66 3.0 6.0 0.01 0.08 0.08 91 1021.4
20180225042831 41 47 3.0 5.0 0.01 0.08 0.08 91 1021.3
20180225042331 42 47 2.0 5.0 0.01 0.08 0.08 91 1021.3
20180225041831 42 52 3.0 6.0 0.01 0.08 0.08 91 1021.3
20180225041331 42 55 4.0 7.0 0.01 0.08 0.08 91 1021.5
20180225040831 42 36 3.0 6.0 0.01 0.08 0.08 91 1021.5
20180225040331 42 38 3.0 7.0 0.01 0.08 0.08 91 1021.6
20180225035832 42 31 3.0 6.0 0.01 0.08 0.08 91 1021.6
20180225035331 42 48 3.0 7.0 0.01 0.08 0.08 91 1021.5
20180225034831 42 38 2.0 6.0 0.00 0.07 0.07 91 1021.5
20180225034331 42 57 2.0 7.0 0.00 0.07 0.07 91 1021.5
20180225033831 42 61 2.0 3.0 0.00 0.07 0.07 91 1021.6
20180225033332 42 59 5.0 8.0 0.00 0.07 0.07 91 1021.6
20180225032832 43 38 3.0 5.0 0.00 0.07 0.07 92 1021.6
20180225032332 43 55 2.0 7.0 0.00 0.07 0.07 92 1021.7
20180225031831 43 62 3.0 6.0 0.00 0.07 0.07 92 1021.8
20180225031331 43 51 3.0 7.0 0.00 0.07 0.07 92 1021.5
20180225030832 43 34 4.0 8.0 0.00 0.07 0.07 93 1021.6
20180225030332 43 33 3.0 6.0 0.00 0.07 0.07 93 1021.6
20180225025832 43 19 2.0 12.0 0.00 0.07 0.07 93 1021.5
20180225025331 43 40 4.0 10.0 0.01 0.07 0.07 93 1021.5
20180225024832 44 25 3.0 10.0 0.01 0.07 0.07 93 1021.6
20180225024332 44 41 6.0 12.0 0.01 0.07 0.07 93 1021.6
20180225023832 45 35 4.0 12.0 0.01 0.07 0.07 94 1021.5
20180225023332 45 34 5.0 10.0 0.01 0.07 0.07 94 1021.4
20180225022832 45 18 6.0 12.0 0.01 0.07 0.07 94 1021.5
20180225022332 45 13 3.0 9.0 0.01 0.07 0.07 94 1021.5
20180225021832 45 23 2.0 7.0 0.01 0.07 0.07 94 1021.6
20180225021332 45 0 2.0 5.0 0.01 0.07 0.07 94 1021.5
20180225020832 45 354 2.0 5.0 0.01 0.07 0.07 94 1021.6
20180225020332 45 34 2.0 6.0 0.01 0.07 0.07 94 1021.7
20180225015832 45 6 2.0 6.0 0.01 0.07 0.07 94 1021.7
20180225015332 45 351 1.0 5.0 0.00 0.06 0.06 94 1021.7
20180225014832 45 345 2.0 3.0 0.00 0.06 0.06 93 1021.6
20180225014332 45 337 1.0 6.0 0.00 0.06 0.06 93 1021.5
20180225013832 45 331 1.0 5.0 0.00 0.06 0.06 93 1021.5
20180225013332 45 323 1.0 3.0 0.00 0.06 0.06 93 1021.6
20180225012832 45 319 1.0 3.0 0.00 0.06 0.06 93 1021.5
20180225012332 45 319 0.0 2.0 0.00 0.06 0.06 93 1021.4
20180225011832 45 319 0.0 1.0 0.00 0.06 0.06 93 1021.2
20180225011332 45 319 0.0 0.0 0.01 0.06 0.06 93 1021.2
20180225010832 45 318 0.0 0.0 0.01 0.06 0.06 93 1021.0
20180225010332 45 318 0.0 0.0 0.01 0.06 0.06 93 1020.9
20180225005833 45 319 0.0 0.0 0.01 0.06 0.06 93 1020.8
20180225005332 45 319 0.0 0.0 0.01 0.06 0.06 93 1020.8
20180225004832 45 318 0.0 0.0 0.01 0.06 0.06 92 1020.6
20180225004332 45 319 0.0 0.0 0.01 0.06 0.06 92 1020.6
20180225003832 45 318 0.0 0.0 0.01 0.06 0.06 92 1020.6
20180225003332 45 319 0.0 0.0 0.01 0.06 0.06 92 1020.5
20180225002833 45 319 0.0 0.0 0.01 0.06 0.06 92 1020.6
20180225002332 45 318 0.0 0.0 0.01 0.06 0.06 92 1020.6
20180225001832 45 319 0.0 0.0 0.01 0.06 0.06 92 1020.5
20180225001333 45 318 0.0 0.0 0.00 0.05 0.05 92 1020.6
20180225000833 45 319 0.0 0.0 0.00 0.05 0.05 92 1020.5
20180225000333 45 319 0.0 0.0 0.00 0.05 0.05 92 1020.5
20180224235833 45 318 0.0 0.0 0.00 0.05 0.05 92 1020.3
20180224235332 45 319 0.0 1.0 0.00 0.05 0.05 91 1020.1
20180224234833 45 319 0.0 1.0 0.00 0.05 0.05 91 1020.1
20180224234332 45 319 0.0 1.0 0.00 0.05 0.05 91 1020.2
20180224233832 45 319 0.0 0.0 0.00 0.05 0.05 91 1020.2
20180224233332 45 318 0.0 1.0 0.00 0.05 0.05 91 1020.1
20180224232833 45 319 0.0 3.0 0.00 0.05 0.05 91 1020.0
20180224232332 45 318 0.0 3.0 0.00 0.05 0.05 91 1020.1
20180224231833 45 314 0.0 2.0 0.00 0.05 0.05 91 1020.0
20180224231333 45 314 1.0 2.0 0.00 0.05 0.05 91 1019.9
20180224230833 45 314 1.0 3.0 0.00 0.05 0.05 91 1020.0
20180224230333 45 312 0.0 2.0 0.01 0.06 0.05 91 1020.0
20180224225832 45 311 0.0 2.0 0.01 0.08 0.05 91 1019.8
20180224225332 45 311 1.0 2.0 0.01 0.09 0.05 91 1020.0
20180224224833 45 311 0.0 1.0 0.01 0.11 0.05 91 1020.1
20180224224332 46 310 0.0 1.0 0.01 0.13 0.05 90 1020.1
20180224223832 45 311 0.0 1.0 0.01 0.13 0.05 91 1020.0
20180224223332 45 311 0.0 1.0 0.01 0.14 0.05 90 1020.4
20180224222833 45 311 0.0 2.0 0.01 0.14 0.05 90 1020.4
20180224222332 46 311 0.0 3.0 0.01 0.14 0.05 90 1020.4
20180224221832 46 311 0.0 3.0 0.01 0.14 0.05 90 1020.5
20180224221333 46 311 1.0 2.0 0.01 0.14 0.05 90 1020.4
20180224220833 46 311 0.0 3.0 0.01 0.15 0.05 90 1020.6
20180224220333 46 311 1.0 3.0 0.00 0.14 0.04 90 1020.6
20180224215833 46 311 1.0 5.0 0.00 0.14 0.04 89 1020.9
20180224215333 46 308 2.0 3.0 0.00 0.14 0.04 89 1020.9
20180224214832 46 303 2.0 5.0 0.01 0.14 0.04 89 1020.7
20180224214332 46 325 1.0 5.0 0.01 0.15 0.04 89 1020.4
20180224213832 46 331 0.0 3.0 0.02 0.15 0.04 89 1020.4
20180224213333 46 331 2.0 5.0 0.03 0.15 0.04 89 1020.3
20180224212833 46 327 0.0 2.0 0.03 0.15 0.04 89 1020.2
20180224212333 46 327 0.0 5.0 0.04 0.15 0.04 88 1020.2
20180224211833 46 327 1.0 3.0 0.04 0.16 0.04 87 1020.1
20180224211333 46 327 0.0 3.0 0.04 0.16 0.04 87 1020.2
20180224210832 46 327 0.0 3.0 0.04 0.16 0.04 87 1020.3
20180224210333 46 314 4.0 9.0 0.04 0.16 0.04 86 1020.6
20180224205833 47 329 2.0 5.0 0.04 0.16 0.04 85 1020.5
20180224205333 47 6 1.0 8.0 0.04 0.16 0.04 85 1020.7
20180224204833 47 331 5.0 8.0 0.03 0.15 0.03 84 1020.3
20180224204333 47 313 4.0 9.0 0.03 0.15 0.03 83 1020.3
20180224203833 48 267 4.0 10.0 0.02 0.14 0.02 81 1020.2
20180224203333 48 311 2.0 7.0 0.01 0.13 0.01 79 1019.7
20180224202832 49 296 3.0 9.0 0.01 0.13 0.01 77 1019.7
20180224202333 49 302 3.0 7.0 0.00 0.12 0.00 75 1019.4
20180224201833 50 313 3.0 8.0 0.00 0.13 0.00 75 1019.4
20180224201334 50 303 2.0 3.0 0.00 0.13 0.00 74 1019.1
20180224200833 50 304 1.0 3.0 0.00 0.13 0.00 74 1019.1
20180224200333 50 307 1.0 3.0 0.00 0.13 0.00 74 1019.0
20180224195833 50 307 2.0 3.0 0.00 0.13 0.00 74 1019.0
20180224195333 50 304 0.0 0.0 0.00 0.13 0.00 74 1019.1
20180224194833 50 304 0.0 2.0 0.00 0.13 0.00 72 1018.9
20180224194333 50 304 1.0 3.0 0.00 0.13 0.00 74 1019.1
20180224193833 50 304 1.0 3.0 0.00 0.13 0.00 74 1019.1
20180224193333 50 304 0.0 3.0 0.00 0.13 0.00 73 1019.3
20180224192833 50 261 0.0 2.0 0.00 0.14 0.00 74 1019.6
20180224192334 50 263 3.0 6.0 0.00 0.14 0.00 72 1019.6
20180224191833 51 327 2.0 9.0 0.00 0.14 0.00 70 1019.5
20180224191334 51 328 3.0 6.0 0.00 0.14 0.00 67 1019.8
20180224190833 51 316 1.0 5.0 0.00 0.14 0.00 67 1020.0
20180224190333 51 311 4.0 9.0 0.00 0.14 0.00 66 1020.2
20180224185833 52 309 5.0 12.0 0.00 0.15 0.00 66 1019.7
20180224185333 52 324 2.0 9.0 0.00 0.15 0.00 65 1019.4
20180224184833 52 318 5.0 9.0 0.00 0.15 0.00 65 1019.2
20180224184333 52 324 2.0 8.0 0.00 0.15 0.00 65 1019.2
20180224183834 53 328 3.0 8.0 0.00 0.15 0.00 64 1019.1
20180224183333 53 350 2.0 5.0 0.00 0.16 0.00 64 1018.7
20180224182833 53 355 2.0 6.0 0.00 0.16 0.00 65 1018.3
20180224182333 53 333 2.0 9.0 0.00 0.16 0.00 66 1018.5
20180224181833 53 294 3.0 6.0 0.00 0.16 0.00 65 1018.9
20180224181333 53 296 3.0 9.0 0.00 0.16 0.00 65 1019.1
20180224180833 53 326 3.0 12.0 0.00 0.16 0.00 65 1019.2
20180224180333 53 348 3.0 10.0 0.00 0.16 0.00 65 1019.3
20180224175833 54 332 3.0 9.0 0.00 0.16 0.00 65 1019.2
20180224175334 53 303 6.0 12.0 0.00 0.16 0.00 66 1019.3
20180224174833 54 315 3.0 12.0 0.00 0.16 0.00 66 1019.2
20180224174333 54 342 5.0 12.0 0.00 0.16 0.00 66 1019.3
20180224173834 54 314 6.0 10.0 0.00 0.16 0.00 65 1019.4
20180224173333 54 329 5.0 10.0 0.00 0.16 0.00 67 1019.6
20180224172834 54 316 2.0 6.0 0.00 0.16 0.00 67 1019.8
20180224172334 54 319 6.0 12.0 0.00 0.16 0.00 66 1019.9
20180224171833 54 310 7.0 12.0 0.00 0.16 0.00 66 1020.0
20180224171334 54 321 5.0 12.0 0.00 0.16 0.00 66 1019.8
20180224170833 54 318 6.0 12.0 0.00 0.16 0.00 66 1020.1
20180224170335 53 276 5.0 13.0 0.00 0.16 0.00 67 1020.3
20180224165833 53 317 3.0 7.0 0.00 0.16 0.00 67 1020.3
20180224165334 53 319 5.0 12.0 0.00 0.16 0.00 67 1020.4
20180224164833 53 287 4.0 10.0 0.00 0.16 0.00 66 1020.4
20180224164333 54 298 4.0 10.0 0.00 0.16 0.00 66 1020.1
20180224163834 54 312 3.0 10.0 0.00 0.16 0.00 66 1019.8
20180224163334 54 302 7.0 14.0 0.00 0.16 0.00 65 1019.7
20180224162834 54 294 4.0 6.0 0.00 0.16 0.00 65 1019.4
20180224162334 54 326 5.0 10.0 0.00 0.16 0.00 66 1019.3
20180224161834 54 358 5.0 10.0 0.00 0.16 0.00 65 1019.4
20180224161333 54 328 6.0 12.0 0.00 0.16 0.00 66 1019.5
20180224160834 55 289 3.0 12.0 0.00 0.16 0.00 65 1019.5
20180224160334 56 291 6.0 13.0 0.00 0.16 0.00 65 1019.4
20180224155834 55 326 5.0 9.0 0.00 0.16 0.00 69 1019.8
20180224155333 53 323 6.0 12.0 0.00 0.17 0.00 68 1019.8
20180224154834 53 303 5.0 12.0 0.00 0.17 0.00 66 1019.8
20180224154334 54 300 4.0 12.0 0.00 0.17 0.00 66 1019.5
20180224153834 54 337 5.0 10.0 0.00 0.17 0.00 66 1019.5
20180224153334 54 352 3.0 9.0 0.00 0.17 0.00 67 1019.5
20180224152834 54 348 5.0 12.0 0.00 0.17 0.00 69 1019.4
20180224152335 53 319 3.0 10.0 0.00 0.17 0.00 68 1019.4
20180224151834 53 327 8.0 12.0 0.00 0.17 0.00 68 1019.5